Location: Seven Sisters Observatory
(42.1577°N, 84.0928°W)
Time: 16:37:50
(UTC-05:00)

Hubble Space Telescope - Visible Passes

Search period start: 18 January 2019 00:00
Search period end: 28 January 2019 00:00
Orbit: 537 x 540 km, 28.5° (Epoch: 18 January)

Date Brightness Start Highest point End Pass type
(mag) Time Alt. Az. Time Alt. Az. Time Alt. Az.
18 Jan 3.4 07:17:18 10° SSW 07:18:56 12° S 07:20:35 10° SSE visible
19 Jan 3.4 07:06:42 10° SSW 07:08:21 12° S 07:10:00 10° SSE visible
20 Jan 3.3 06:56:12 10° SSW 06:57:46 12° S 06:59:20 10° SSE visible
21 Jan 3.3 06:45:48 10° SSW 06:47:10 11° S 06:48:32 10° SSE visible
22 Jan 3.3 06:35:38 10° SSW 06:36:34 11° S 06:37:31 10° S visible
